Temperature
18 16 15 14 13 13 12 12 11 11 11 10 10 10 9 9 9 9 8 8 8 8 8 9 9 9 9 9 10 10 10 10 11 11 10 10 10 10 10 11 12 12 12
19 17 16 14 14 13 12 12 11 11 11 10 10 10 9 9 9 9 8 8 8 8 8 8 9 9 9 9 9 10 10 10 11 10 10 10 9 9 9 10 10 10 10
19 18 17 15 14 13 12 12 11 11 11 10 10 10 9 9 9 8 8 8 8 8 8 8 9 9 9 9 9 10 10 10 10 10 10 10 9 8 9 9 9 9 9
19 18 17 15 14 13 12 12 12 11 11 10 10 10 9 9 9 8 8 8 8 8 9 9 9 9 9 9 10 10 10 10 10 10 10 9 9 8 8 8 8 8 8
19 18 17 15 14 12 12 11 11 11 11 10 10 9 9 9 9 8 8 8 8 9 9 9 9 9 9 10 10 10 10 10 10 9 9 9 8 8 8 8 8 8 8
19 18 17 15 14 12 12 11 11 11 10 10 10 9 9 9 9 9 9 9 9 9 9 9 9 10 10 10 10 10 10 10 10 9 9 9 8 7 7 7 7 7 7
19 18 17 15 13 12 11 11 11 11 10 10 10 9 9 9 9 9 9 9 9 9 9 9 10 10 10 10 10 10 10 10 9 9 9 9 8 7 7 7 7 7 7
18 18 16 15 13 12 11 11 11 10 10 10 10 9 9 9 9 9 9 9 9 9 9 9 10 9 9 9 9 9 9 9 9 9 9 9 8 7 7 7 7 7 7
18 17 16 15 13 12 11 11 10 10 10 10 9 9 9 9 9 9 9 9 9 9 9 9 9 9 9 9 9 9 9 9 9 9 9 9 8 7 7 7 7 7 7
17 16 16 15 13 11 11 11 10 10 10 10 9 9 9 9 9 8 9 9 9 9 9 9 9 9 9 9 9 9 9 9 9 9 9 8 8 7 7 7 7 7 7
17 16 15 15 13 12 11 10 10 10 9 9 9 9 9 9 9 9 9 9 9 9 9 9 9 9 9 9 9 9 9 9 8 8 8 8 8 8 7 7 7 7 7
18 18 16 15 14 12 11 10 10 10 9 9 9 9 9 10 9 9 9 9 9 9 9 9 9 9 9 9 9 9 9 8 8 8 8 8 8 8 7 7 7 7 7
19 18 17 15 14 13 12 11 10 10 9 9 9 9 10 10 9 9 9 9 9 9 9 9 9 9 9 8 8 8 8 8 8 8 8 8 8 8 7 7 7 7 7
18 18 17 16 14 13 12 11 11 10 10 10 10 10 10 10 10 9 9 9 9 9 9 8 8 8 8 8 8 8 8 8 8 8 8 7 7 7 7 6 6 6 6
17 17 17 16 15 14 13 12 11 11 11 10 10 10 10 10 9 9 9 9 9 8 8 8 8 8 8 8 8 8 8 8 8 8 7 7 7 7 7 6 6 5 5
17 17 17 16 15 14 13 12 12 11 11 10 10 10 9 9 9 9 9 8 8 8 8 8 7 7 7 7 8 8 8 7 7 7 7 7 7 7 7 7 6 5 5
17 17 16 16 15 14 13 13 12 11 11 10 10 9 9 9 9 9 8 8 8 8 7 7 7 7 7 7 7 7 7 7 7 7 7 7 7 7 7 7 6 6 5
17 17 16 15 15 14 13 13 12 11 11 10 10 9 9 9 9 8 8 8 8 7 7 7 7 7 7 7 7 7 7 7 7 7 7 7 7 7 7 7 7 6 6
18 17 16 15 15 14 13 12 12 11 10 10 10 9 9 9 8 8 8 8 8 7 7 7 7 7 7 7 7 6 6 6 6 6 7 7 7 7 7 7 7 6 6
18 17 16 15 15 14 13 12 11 11 10 10 10 9 9 9 8 8 8 8 7 7 7 7 7 6 6 6 6 6 6 6 6 6 7 7 7 7 7 7 7 6 6
17 17 16 15 15 14 13 13 12 11 11 10 10 10 9 9 9 8 8 8 7 7 7 7 6 6 6 6 5 5 6 6 6 7 7 7 7 7 7 7 7 7 6
16 16 15 15 14 14 13 12 11 11 10 10 10 10 9 9 9 8 8 8 7 7 7 6 6 6 5 5 5 4 4 5 6 7 7 7 7 7 7 7 7 7 6
16 15 15 14 14 13 12 11 11 11 10 10 10 10 10 9 9 8 8 8 7 7 6 6 6 5 5 5 5 4 3 4 4 5 5 5 5 5 6 6 6 6 6
15 15 14 14 13 13 12 12 11 11 11 10 10 10 9 9 8 8 8 7 7 6 6 6 6 5 5 4 4 4 4 3 3 3 4 4 4 4 4 5 5 5 5
14 14 14 13 13 12 12 11 11 11 10 10 10 9 9 9 8 8 7 7 7 6 6 6 5 5 5 4 4 4 4 3 2 1 1 3 3 4 4 4 4 3 3
13 13 13 13 12 12 12 11 11 11 10 10 10 9 9 9 8 8 7 7 7 6 6 6 5 5 4 4 4 3 3 3 2 2 1 1 2 3 3 3 3 3 3
Wind_Speed
9 16 24 24 22 20 18 16 15 13 12 11 11 10 10 10 10 9 10 11 12 12 13 13 13 13 14 15 15 16 17 18 19 20 20 20 19 19 19 19 19 19 20
12 22 26 25 23 21 19 17 15 14 13 12 11 10 10 10 9 9 9 9 10 11 12 12 12 12 13 14 14 15 16 17 18 18 19 18 17 19 19 19 18 18 19
13 25 26 26 24 22 20 18 16 15 14 12 11 11 10 9 9 9 8 9 9 10 10 11 11 11 12 13 13 14 14 16 16 17 18 18 15 17 17 17 18 18 18
18 25 23 26 24 22 21 19 17 16 14 13 12 11 10 9 9 8 8 8 8 9 9 9 10 10 11 11 12 12 13 14 15 16 18 17 14 14 16 16 16 16 16
18 23 22 27 25 23 21 20 18 17 15 14 13 12 11 10 9 8 8 7 7 7 8 8 8 9 9 10 10 11 11 12 13 16 17 16 14 13 14 14 14 14 15
14 22 22 27 25 24 22 21 19 18 16 15 14 12 11 10 10 9 8 7 7 7 7 7 7 7 8 8 8 9 9 10 12 14 14 14 12 10 11 12 12 13 13
12 19 20 26 25 24 22 21 20 19 17 16 15 13 12 11 10 9 8 7 7 6 6 6 6 6 6 6 7 7 7 8 9 10 12 12 10 9 9 10 10 11 11
11 17 18 25 25 24 23 22 21 19 18 17 16 15 13 12 11 10 9 8 7 6 5 5 4 4 4 4 5 5 6 5 5 7 9 11 8 7 7 7 8 8 9
12 14 15 20 23 24 23 22 21 20 19 18 17 16 14 13 12 11 10 9 8 7 5 4 3 3 3 3 3 4 4 3 2 4 7 9 7 5 5 5 6 6 7
8 11 14 15 19 21 22 22 22 21 20 19 17 16 15 14 13 12 11 10 9 8 6 5 4 3 2 2 2 2 3 2 0 3 6 8 6 3 3 3 3 4 4
10 9 12 12 15 18 19 21 22 21 20 19 18 17 16 13 12 11 11 11 10 9 8 7 6 5 4 3 2 2 2 2 3 5 7 8 6 4 2 1 1 1 2
17 14 11 11 12 15 17 18 18 19 19 19 16 16 15 13 12 9 11 12 11 10 10 9 8 7 5 4 3 2 2 4 5 7 9 9 8 6 4 3 3 2 2
15 15 15 12 13 14 14 15 14 15 16 16 17 16 14 13 12 10 9 10 9 8 7 6 4 4 4 5 5 5 5 6 8 10 11 11 11 9 8 7 6 6 5
10 15 14 12 11 13 14 13 13 13 13 14 16 17 15 12 11 11 10 10 8 7 6 6 5 4 5 7 8 8 9 9 11 12 13 13 13 13 12 10 10 9 8
12 13 13 12 11 12 11 11 13 13 14 15 16 17 18 14 11 12 11 12 11 10 9 8 8 7 8 8 10 10 12 13 14 15 16 15 16 15 15 14 13 12 11
14 13 12 14 12 12 10 9 11 13 14 16 17 19 20 18 15 13 12 12 13 14 13 12 11 10 9 10 11 13 14 15 16 17 18 18 18 18 18 18 17 16 15
11 11 13 13 11 11 10 11 12 14 15 14 16 19 21 20 18 16 13 12 15 17 15 12 11 9 8 8 9 13 14 16 17 19 20 20 21 20 21 21 20 19 18
9 10 12 13 13 13 11 11 11 13 15 15 16 18 20 21 20 17 13 13 17 16 14 10 7 5 6 6 7 8 12 13 17 19 20 21 21 21 22 23 23 23 22
8 9 10 12 13 13 10 9 10 12 13 14 16 17 19 20 21 18 15 15 16 14 12 10 7 6 7 9 9 8 8 10 15 17 18 21 23 23 24 24 26 26 25
5 7 9 10 10 9 7 6 5 6 7 12 15 17 19 20 21 20 16 15 15 9 8 8 9 8 7 8 8 9 8 9 12 14 18 21 22 25 25 25 25 25 26
3 4 6 8 8 7 6 7 6 8 6 6 11 16 19 20 21 20 16 13 13 11 13 12 8 9 8 4 3 6 7 11 15 14 16 17 20 25 25 25 24 23 23
3 0 3 6 7 8 7 5 4 4 4 6 8 14 19 20 21 20 16 11 11 10 11 11 10 6 6 7 6 3 6 6 7 12 12 12 12 15 17 23 23 23 23
6 2 2 4 6 7 6 4 3 2 0 2 6 8 14 19 20 21 19 16 12 12 13 14 14 12 10 8 9 7 5 7 5 4 7 10 11 10 11 16 21 23 24
7 4 2 0 3 4 6 6 7 6 7 8 6 6 8 15 19 21 20 18 13 12 14 15 14 13 12 11 7 11 11 6 5 6 4 5 7 9 11 12 15 21 24
7 6 4 3 2 2 4 6 7 8 9 6 4 6 8 8 14 18 19 16 14 13 15 15 13 14 13 14 11 7 11 11 10 9 12 7 5 8 10 11 11 15 21
8 7 6 5 4 1 2 4 7 9 9 8 8 8 7 6 7 11 15 14 13 13 15 16 15 15 15 16 14 11 9 7 9 12 17 13 11 8 10 11 11 13 19
Wind_Direction
196 185 184 174 171 170 169 166 162 157 154 148 141 134 124 117 111 104 95 89 87 83 79 75 74 72 72 70 70 68 65 62 58 54 53 58 66 68 68 66 61 57 59
166 178 182 175 173 173 173 170 167 163 160 154 147 141 135 127 120 112 103 96 90 86 81 77 75 74 74 74 73 72 70 65 60 54 48 44 56 67 65 64 63 61 60
157 173 182 175 175 175 175 173 170 168 165 161 155 149 143 137 129 121 113 103 95 90 85 81 78 76 76 77 77 76 73 68 61 52 43 34 41 65 65 64 62 61 60
161 171 181 176 177 177 177 176 174 172 170 167 163 158 153 146 139 132 124 114 105 98 92 87 83 81 80 80 80 79 75 68 60 50 40 32 33 64 65 63 62 61 60
164 172 181 177 178 179 180 178 177 176 175 173 170 167 164 159 153 145 138 129 118 109 101 95 89 85 84 85 84 83 79 69 57 47 38 31 29 60 64 63 62 61 59
165 173 182 178 180 181 182 181 181 180 180 179 177 175 173 169 164 158 151 142 132 123 114 104 95 90 88 90 91 89 83 69 54 44 33 25 22 58 65 64 63 61 59
164 174 184 181 182 184 185 184 184 184 185 184 183 182 180 177 173 169 164 158 151 142 130 118 107 98 92 94 98 96 89 72 52 36 22 14 13 59 65 63 62 61 59
163 173 184 184 185 187 187 188 187 188 189 188 188 187 187 185 182 180 177 174 169 162 151 140 126 114 105 102 106 108 100 75 50 25 9 1 7 60 65 61 60 60 59
165 173 186 190 188 190 191 191 191 191 193 193 193 193 193 192 191 189 188 187 185 182 176 168 158 145 133 121 122 124 120 100 58 6 351 346 356 47 63 60 57 58 57
171 181 188 194 189 190 192 194 194 195 196 197 197 197 196 197 197 197 195 196 197 197 196 196 195 192 186 176 163 154 146 138 199 317 324 327 337 12 48 54 48 49 51
188 194 193 197 191 186 187 194 196 197 199 200 200 200 199 197 197 201 194 203 207 209 211 214 216 217 216 221 235 209 173 183 240 277 293 305 312 316 328 350 2 12 27
197 197 196 196 191 184 186 191 194 194 197 199 198 198 195 187 189 194 197 208 215 219 222 225 227 228 219 213 260 279 194 222 244 264 277 288 290 288 283 276 273 277 283
197 196 198 196 191 186 185 185 187 187 190 192 192 190 182 180 185 189 196 210 223 228 229 237 249 216 204 214 233 245 243 244 250 259 269 277 278 277 274 268 264 262 262
195 200 198 193 191 191 186 184 183 183 186 186 187 185 177 175 180 183 191 201 211 215 216 222 229 228 229 234 238 243 246 247 251 257 262 268 271 272 271 267 263 260 258
206 202 198 193 193 190 187 186 187 188 188 188 187 187 185 181 184 189 196 204 212 217 218 221 227 233 239 245 247 246 247 248 251 254 258 263 268 269 268 266 264 260 257
210 203 195 197 195 190 192 192 191 191 190 188 190 192 192 191 191 192 199 206 214 218 221 223 227 231 238 243 248 248 249 251 252 253 255 258 262 265 266 265 264 262 259
210 197 195 198 193 194 197 196 193 190 189 192 196 197 197 197 196 197 202 210 217 220 221 224 229 234 242 244 247 249 251 251 251 252 253 254 255 259 262 263 263 262 260
201 190 192 198 197 200 200 198 195 191 194 198 198 199 203 203 202 201 207 217 218 215 213 213 215 220 234 237 246 248 248 249 250 250 251 250 250 250 253 257 260 260 260
194 185 186 194 196 199 197 197 197 195 201 203 202 204 207 208 207 207 215 221 214 209 212 219 212 211 231 239 245 248 244 246 249 250 247 246 245 244 245 249 253 255 256
174 181 185 192 193 185 183 185 194 205 210 209 209 212 210 212 212 213 222 221 208 206 215 217 224 216 226 237 254 260 250 244 244 244 246 247 243 240 239 240 243 247 251
112 171 187 188 184 172 177 190 203 220 216 217 219 219 215 216 214 216 225 220 210 218 224 219 218 224 232 211 246 278 265 245 244 243 240 240 241 238 235 234 235 237 242
41 188 202 197 187 186 191 183 189 195 213 217 221 224 222 220 219 221 224 226 218 223 227 220 211 215 222 189 193 240 295 296 248 239 237 236 239 237 234 235 232 232 234
19 344 237 208 197 193 178 153 127 118 345 231 226 228 227 225 225 225 226 227 223 221 229 226 218 217 229 212 200 197 225 249 296 261 235 234 233 229 233 234 233 233 233
6 4 9 198 190 185 172 176 190 207 227 232 226 230 229 225 228 229 230 229 227 226 230 231 223 221 223 229 213 221 228 212 236 289 265 245 238 232 231 232 233 233 231
18 25 28 49 74 159 181 194 204 228 242 253 246 243 239 229 229 231 231 231 232 231 232 233 228 221 222 229 222 209 229 238 232 245 269 261 246 232 230 229 230 231 231
25 30 33 45 44 67 185 205 217 236 251 264 263 260 257 245 237 234 233 233 235 235 236 235 233 227 228 229 230 221 211 212 215 224 246 256 258 241 225 227 227 228 229
Height
1539 1541 1544 1546 1549 1551 1553 1555 1556 1558 1559 1560 1561 1561 1562 1562 1562 1562 1563 1563 1562 1562 1561 1561 1561 1561 1560 1560 1560 1560 1560 1560 1560 1560 1560 1560 1561 1560 1560 1560 1560 1560 1560
1539 1540 1543 1545 1548 1550 1553 1555 1556 1558 1559 1560 1561 1562 1562 1562 1563 1563 1563 1563 1563 1563 1562 1562 1562 1561 1561 1561 1561 1560 1560 1561 1561 1561 1561 1561 1561 1562 1561 1561 1561 1561 1561
1538 1540 1542 1544 1547 1549 1552 1554 1556 1558 1559 1560 1561 1562 1562 1563 1563 1563 1564 1564 1564 1563 1563 1563 1563 1562 1562 1562 1562 1561 1561 1561 1562 1562 1562 1562 1562 1563 1562 1562 1562 1561 1561
1537 1539 1541 1543 1546 1549 1551 1554 1556 1557 1559 1560 1561 1562 1563 1563 1564 1564 1564 1564 1564 1564 1564 1563 1563 1563 1563 1563 1562 1562 1562 1562 1563 1563 1563 1563 1563 1564 1563 1562 1562 1562 1562
1536 1538 1540 1543 1545 1548 1551 1553 1555 1557 1558 1560 1561 1562 1563 1563 1564 1564 1564 1564 1564 1564 1564 1564 1564 1564 1564 1564 1563 1563 1563 1564 1564 1564 1564 1564 1564 1564 1563 1563 1563 1562 1562
1535 1537 1540 1542 1544 1547 1550 1552 1554 1556 1558 1559 1561 1562 1563 1563 1564 1564 1564 1564 1565 1565 1565 1565 1565 1565 1565 1565 1565 1565 1565 1565 1565 1565 1565 1564 1564 1564 1564 1563 1563 1563 1562
1535 1536 1539 1541 1544 1546 1549 1551 1554 1555 1557 1559 1560 1561 1562 1563 1564 1564 1564 1565 1565 1565 1565 1565 1565 1565 1565 1566 1565 1565 1566 1566 1566 1566 1565 1565 1564 1565 1564 1564 1563 1563 1562
1534 1535 1538 1540 1543 1545 1548 1550 1552 1554 1556 1558 1559 1561 1562 1563 1564 1564 1564 1565 1565 1565 1565 1566 1566 1566 1566 1566 1566 1566 1566 1566 1566 1566 1566 1565 1565 1565 1564 1564 1563 1563 1562
1532 1534 1536 1538 1541 1544 1546 1549 1551 1553 1555 1557 1559 1560 1561 1562 1563 1564 1564 1564 1565 1565 1565 1566 1566 1566 1566 1566 1566 1566 1566 1566 1566 1566 1566 1565 1565 1565 1564 1563 1563 1562 1562
1530 1532 1534 1536 1538 1541 1544 1547 1549 1552 1554 1556 1557 1559 1560 1561 1562 1563 1564 1564 1565 1565 1565 1565 1566 1566 1566 1566 1566 1566 1566 1566 1566 1566 1565 1565 1565 1564 1564 1563 1563 1562 1562
1527 1529 1531 1533 1535 1538 1541 1544 1547 1549 1552 1554 1556 1557 1559 1560 1561 1562 1563 1564 1564 1564 1565 1565 1565 1565 1565 1565 1565 1565 1565 1565 1565 1565 1565 1564 1564 1563 1563 1562 1562 1561 1561
1523 1525 1527 1530 1532 1535 1538 1541 1544 1546 1549 1551 1553 1555 1556 1558 1560 1561 1562 1562 1563 1563 1564 1564 1564 1564 1564 1564 1564 1564 1564 1564 1564 1564 1563 1563 1563 1562 1562 1561 1561 1560 1560
1520 1522 1524 1526 1529 1532 1535 1538 1540 1543 1546 1548 1550 1552 1554 1556 1557 1559 1560 1561 1562 1562 1563 1563 1563 1563 1563 1563 1563 1563 1563 1562 1562 1562 1561 1561 1561 1560 1560 1560 1559 1559 1558
1516 1519 1521 1524 1526 1529 1532 1535 1537 1540 1542 1545 1547 1549 1551 1553 1555 1556 1558 1559 1560 1560 1561 1561 1561 1561 1561 1561 1561 1561 1561 1560 1560 1560 1559 1559 1558 1558 1558 1558 1557 1557 1556
1513 1515 1518 1521 1523 1526 1528 1531 1534 1536 1539 1542 1544 1546 1548 1550 1552 1554 1555 1556 1557 1558 1558 1559 1559 1559 1559 1558 1558 1558 1558 1558 1557 1557 1557 1556 1555 1555 1555 1555 1554 1554 1554
1508 1512 1515 1518 1520 1523 1525 1528 1530 1533 1536 1539 1541 1543 1545 1547 1549 1551 1552 1553 1554 1555 1555 1556 1556 1555 1555 1555 1554 1554 1554 1554 1554 1553 1553 1552 1552 1551 1551 1551 1551 1551 1551
1504 1508 1511 1514 1517 1520 1522 1525 1527 1530 1533 1535 1537 1540 1542 1543 1545 1547 1548 1549 1550 1551 1551 1551 1551 1551 1550 1550 1550 1550 1549 1549 1549 1548 1548 1548 1547 1547 1546 1546 1546 1546 1546
1501 1504 1507 1510 1513 1516 1519 1521 1524 1526 1529 1531 1533 1536 1537 1539 1541 1542 1543 1544 1546 1546 1546 1546 1546 1545 1545 1544 1544 1544 1543 1543 1542 1542 1542 1541 1541 1541 1541 1541 1540 1540 1540
1498 1501 1503 1506 1509 1512 1515 1518 1520 1523 1525 1527 1529 1531 1533 1535 1536 1537 1537 1539 1540 1540 1540 1540 1540 1539 1538 1538 1537 1536 1536 1535 1535 1534 1533 1533 1534 1534 1534 1534 1534 1534 1534
1497 1499 1501 1503 1506 1509 1511 1514 1516 1518 1520 1522 1524 1526 1527 1529 1530 1531 1532 1532 1533 1533 1533 1533 1533 1533 1532 1532 1530 1527 1526 1526 1525 1524 1524 1524 1524 1525 1525 1526 1526 1526 1526
1498 1499 1500 1502 1504 1506 1508 1510 1512 1514 1516 1517 1519 1520 1522 1523 1524 1524 1525 1525 1525 1525 1525 1526 1526 1525 1524 1525 1522 1518 1516 1515 1513 1512 1513 1513 1514 1515 1515 1515 1516 1517 1517
1499 1500 1500 1501 1502 1504 1506 1507 1509 1511 1512 1513 1515 1515 1516 1517 1517 1517 1517 1517 1517 1517 1517 1517 1517 1516 1515 1516 1515 1512 1506 1502 1500 1501 1501 1501 1502 1503 1503 1504 1505 1506 1507
1502 1501 1501 1502 1502 1503 1504 1505 1506 1507 1508 1509 1509 1510 1510 1511 1510 1510 1509 1509 1508 1508 1507 1507 1507 1506 1505 1506 1506 1506 1502 1494 1492 1490 1490 1491 1492 1493 1494 1495 1495 1496 1497
1504 1503 1503 1502 1502 1503 1503 1504 1504 1504 1504 1505 1505 1505 1505 1504 1503 1503 1502 1501 1499 1498 1497 1497 1497 1496 1496 1494 1494 1494 1493 1492 1490 1482 1479 1480 1481 1481 1484 1485 1486 1487 1488
1506 1505 1504 1504 1503 1503 1503 1503 1503 1502 1502 1501 1501 1499 1498 1498 1496 1495 1494 1492 1491 1489 1488 1487 1487 1485 1484 1484 1483 1482 1482 1480 1479 1477 1469 1468 1470 1469 1472 1473 1474 1475 1476
1508 1507 1506 1505 1504 1503 1503 1502 1501 1500 1499 1498 1496 1495 1493 1492 1490 1488 1486 1484 1482 1481 1479 1478 1477 1475 1474 1472 1472 1471 1470 1469 1467 1466 1462 1457 1457 1456 1459 1460 1460 1462 1464